Location: Chris' Backyard Observatory
(47.3045°N, 122.2839°W)
Time: 07:12:14
(UTC-07:00)

Daily predictions for brighter satellites

Satellite Brightness Start Highest point End
(mag) Time Altitude Azimuth Time Altitude Azimuth Time Altitude Azimuth
Meteor 2-4 Rocket 4.1 21:24:59 10° SSW 21:30:52 78° WNW 21:36:51 10° N
PSLV R/B 3.4 21:28:39 10° SSE 21:31:42 57° ENE 21:34:47 10° N
Cosmos 2333 Rocket 4.3 21:26:56 10° WSW 21:32:02 34° NW 21:37:12 10° NNE
Okean 2 3.9 21:30:17 10° SSW 21:34:26 65° W 21:38:37 10° N
Aureole 2 Rocket 2.6 21:32:14 10° SSW 21:36:04 83° WNW 21:39:34 10° NNE
Cosmos 1943 4.2 21:35:26 10° SSE 21:40:03 26° ESE 21:44:42 10° NE
Cosmos 1943 Rocket 3.7 21:36:17 10° N 21:40:43 24° NE 21:45:09 10° E
CZ-2C R/B 3.1 21:39:06 10° SW 21:40:51 19° W 21:42:37 10° NW
Lacrosse 4 Rocket 3.3 21:39:48 10° SE 21:41:23 12° ESE 21:42:57 10° E
USA 186 4.5 21:40:48 10° WSW 21:42:04 12° W 21:43:19 10° WNW
H-2A R/B 3.6 21:39:09 10° ESE 21:42:50 21° ENE 21:46:36 10° NNE
MetOp-A 4.3 21:37:56 10° SSE 21:43:14 67° ENE 21:48:34 10° N
Nimbus 7 Rocket 4.4 21:39:14 10° NNE 21:45:14 76° ESE 21:51:08 10° S
UNK 4.4 21:44:10 10° NNE 21:49:28 54° ESE 21:55:00 10° S
SeaSat 1 2.6 21:44:39 10° SSE 21:49:35 81° WSW 21:54:34 10° NNW
SPOT 1/Viking Rocket 3.8 21:46:16 10° SSE 21:51:17 56° ENE 21:56:21 10° N
CZ-4B R/B 3.8 21:50:30 10° NNE 21:55:25 49° E 22:00:26 10° S
Cosmos 1461 4.4 21:54:34 10° NW 21:58:20 30° WSW 22:01:55 10° S
Cosmos 1238 4.0 22:02:47 10° S 22:05:53 79° E 22:08:56 10° N
ARGOS 3.2 22:14:47 13° SSE 22:19:39 79° ENE 22:25:07 10° NNW
Cosmos 2369 Rocket 2.2 22:14:56 10° NNW 22:20:39 90° SW 22:25:15 16° SSE
ISS -3.0 22:19:49 10° SW 22:22:56 42° SE 22:26:03 10° ENE
Cosmos 1825 Rocket 3.5 22:20:17 10° S 22:24:43 73° E 22:29:09 10° NNE
CZ-4C R/B 3.5 22:22:04 17° SSE 22:25:13 64° ENE 22:29:14 10° N
PSLV R/B 4.4 22:24:26 10° SW 22:27:31 27° S 22:28:47 22° SE
ATLAS 3B R/B 3.1 22:20:20 10° S 22:27:40 50° ESE 22:34:51 10° NE
SL-27 R/B 4.4 22:28:34 13° E 22:28:34 13° E 22:30:12 10° ENE
SL-16 R/B 4.4 22:26:54 10° WSW 22:31:46 29° NW 22:36:39 10° N
SL-8 R/B 3.8 22:27:10 10° W 22:32:01 78° N 22:36:53 10° E
Envisat 4.4 22:27:39 10° SSW 22:32:13 33° W 22:36:49 10° NNW
Atlas Centaur 2 4.1 22:28:34 10° SW 22:34:25 23° S 22:38:00 17° SE
NOAA 11 4.2 22:31:39 15° SSE 22:36:12 84° WSW 22:41:40 10° NNW
Cosmos 407 Rocket 3.7 22:31:34 11° S 22:36:25 52° ESE 22:41:29 10° NNE
CZ-4 R/B 3.9 22:32:30 10° NNE 22:37:31 81° ESE 22:42:33 10° SSW
Cosmos 1953 3.2 22:36:46 10° N 22:40:28 35° ENE 22:42:23 22° SE
USA 234 3.6 22:35:50 17° SSE 22:40:50 55° SW 22:47:17 10° WNW
SL-08 RB Rocket 3.8 22:37:33 17° S 22:41:01 78° WSW 22:45:34 10° NNW
Lacrosse 5 rocket 3.7 22:39:59 10° WNW 22:43:25 26° NNW 22:46:59 10° NE
Cosmos 2263 4.2 22:41:24 10° NNW 22:47:02 78° WSW 22:50:53 21° SSE
Landsat 7 3.8 22:45:23 20° SSE 22:48:39 89° WSW 22:53:26 10° NNW
Spot 4 4.1 22:48:23 23° SE 22:51:15 58° ENE 22:55:58 10° N
YAOGAN 6 4.2 22:48:44 11° SSW 22:51:53 30° W 22:55:15 10° NNW
Meteor 1-22 Rocket 4.5 22:47:01 10° NNW 22:52:32 69° W 22:57:03 17° S
COSMOS 2406 4.2 22:51:29 21° SE 22:53:38 27° ESE 22:58:22 10° NE
Cosmos 1954 Rocket 4.4 22:52:49 21° SSE 22:56:00 46° ESE 23:01:03 10° NNE
COSMOS 2455 3.4 22:54:04 10° SW 23:00:00 61° NW 23:05:59 10° NNE
Cosmos 1346 Rocket 3.2 22:59:54 14° SSW 23:03:08 60° WNW 23:07:04 10° N
Cosmos 1544 4.5 23:00:02 10° NNE 23:03:19 27° ENE 23:04:31 23° ESE
Lacrosse 5 3.9 22:59:00 10° WNW 23:03:19 27° N 23:07:38 10° ENE
Terra 1.8 23:01:39 25° SSE 23:04:27 89° W 23:09:15 10° NNW
USA 238 DEB 4.3 23:01:03 20° S 23:05:18 38° ESE 23:11:41 10° NE
USA 238 4.3 23:01:14 20° S 23:05:24 37° ESE 23:11:46 10° NE
IGS 5A 3.4 23:04:05 29° SSE 23:06:09 88° ENE 23:10:21 10° NNW
Cosmos 2084 3.4 23:04:58 10° NW 23:09:05 74° NE 23:11:07 30° SE
Cosmos 1953 Rocket 4.3 23:06:53 12° SSW 23:10:54 51° WNW 23:15:16 10° N
CZ-4C R/B 4.2 23:12:00 11° ESE 23:12:00 11° ESE 23:13:24 10° E
SAR-Lupe-2 4.1 23:14:02 29° SSW 23:15:35 51° W 23:19:06 10° NNW
Cosmos 1842 3.2 23:14:45 29° S 23:16:41 88° WNW 23:20:37 10° N
Lacrosse 4 Rocket 1.4 23:15:31 11° SW 23:19:28 75° WNW 23:23:36 10° NNE
Cosmos 2221 4.2 23:16:42 10° NNE 23:20:08 22° ENE 23:21:43 18° E
Cosmos 2279 Rocket 4.4 23:15:35 10° NNW 23:21:43 61° W 23:26:10 19° SSW
Geosat 4.1 23:16:42 10° NNE 23:21:46 81° WNW 23:26:47 10° SW
H-2A R/B 2.3 23:18:55 24° S 23:21:49 60° W 23:26:52 10° NNW
Cosmos-2242 3.3 23:18:55 10° NNW 23:23:18 67° W 23:25:25 29° S
Cosmos 1943 3.9 23:18:12 10° SW 23:23:45 55° WNW 23:29:22 10° NNE
Cosmos 1943 Rocket 2.2 23:19:28 10° NNW 23:25:01 71° WSW 23:27:52 29° S
Cosmos 1758 3.4 23:22:12 10° NNW 23:26:20 76° W 23:27:57 36° S
Cosmos 1570 Rocket 4.0 23:22:27 10° NNW 23:27:51 84° ENE 23:30:26 32° SSE
Cosmos 1900 4.5 23:25:32 10° SW 23:30:42 82° NW 23:35:53 10° NE
Cosmos 1850 Rocket 4.3 23:30:31 32° SSE 23:32:28 48° ESE 23:37:29 10° NNE
Cosmos 1932 4.4 23:31:51 17° SSW 23:36:41 69° ESE 23:42:54 10° NE
Okean 3 Rocket 4.2 23:37:59 34° ESE 23:39:00 39° E 23:43:06 10° NNE
Cosmos 1656 Rocket 3.7 23:34:10 10° NNW 23:39:54 79° ENE 23:42:37 32° SE
SL-23 DEB 3.8 23:35:57 10° SW 23:40:53 56° SSE 23:44:12 10° ENE
Cosmos 1733 3.9 23:37:17 10° N 23:41:00 42° ENE 23:41:50 36° ESE
Cosmos 1607 4.2 23:40:55 30° S 23:43:35 47° ESE 23:49:30 10° NE
DMSP B5D2-2 4.4 23:39:08 10° N 23:44:23 66° WNW 23:48:02 20° SSW
Cosmos 1023 Rocket 4.4 23:42:48 29° SSW 23:45:31 79° ESE 23:50:49 10° NNE
Meteor 2-5 Rocket 4.1 23:48:01 33° SSE 23:50:23 54° E 23:56:00 10° NNE
Cosmos 1140 Rocket 3.4 23:48:52 29° SSW 23:51:38 87° ESE 23:56:55 10° NNE
COSMOS 2487 3.0 23:55:27 42° E 23:55:27 42° E 23:58:46 10° NNE
